Вернуться в каталог

FENGYUN 1C DEB

LostSSO
NORAD 40685·DEBRIS·🇨🇳 China

Запущен May 10, 1999 с Taiyuan Satellite Launch Center

Loading…

Ближайшие Пролёты (ближайшие 24 часа)

TLE

УстаревшееSource: Space-Track

Эпоха: Mar 10, 2025, 00:11 UTC

1 40685U 99025EWR 25069.00810717  .00003429  00000-0  25871-2 0  9997
2 40685  99.3268 153.7618 0159357  34.3098 326.8231 13.89044879521073

Отслеживайте FENGYUN 1C DEB в реальном времени с AllMySat

Download on the App Store